RH
44 43 42 42 43 42 36 23 16 14 12 11 11 10 10 9 8 8 7 7 6 6 6 6 6 6 7
46 44 44 45 46 43 38 26 17 15 14 13 12 11 10 10 9 8 8 8 7 7 7 7 7 7 8
47 46 44 44 46 44 38 28 20 18 16 14 13 12 12 11 10 10 9 9 8 8 8 8 8 8 8
51 49 46 45 45 44 37 27 22 23 19 16 15 14 14 14 13 12 11 10 10 10 9 9 9 10 10
54 53 50 47 44 40 35 29 34 29 23 20 21 20 20 20 19 18 15 12 12 12 11 11 10 12 12
58 56 54 51 44 37 32 40 40 39 30 28 29 26 25 26 28 23 16 15 14 13 13 13 13 14 15
67 63 61 53 42 34 43 68 50 32 37 36 30 36 31 27 31 25 18 19 16 16 16 16 15 16 18
87 76 71 58 44 50 88 72 55 61 66 41 36 37 30 31 34 25 23 21 18 18 17 15 15 17 18
98 95 94 74 64 77 92 92 90 91 70 45 43 37 32 34 32 24 34 25 20 18 14 15 16 16 17
100 98 99 97 96 96 98 97 97 92 57 50 44 41 37 30 28 30 39 26 20 14 14 14 13 14 14
98 100 99 97 99 98 98 97 95 66 60 77 66 47 44 34 31 37 35 22 17 14 14 13 13 12 11
100 99 89 92 95 98 98 96 94 91 96 80 68 57 41 33 31 31 29 20 14 14 14 13 13 12 11
99 86 83 94 96 97 96 97 95 89 75 75 76 64 43 27 25 27 24 18 14 15 14 13 13 13 13
100 93 93 98 95 98 98 98 93 85 96 94 76 65 41 28 24 22 20 19 15 16 15 15 14 14 14
100 100 100 100 99 97 97 97 95 92 95 81 70 60 41 30 24 20 19 19 16 17 18 18 18 18 17
99 100 100 100 99 96 97 93 92 96 92 91 78 56 40 33 26 21 19 18 18 19 22 23 22 22 21
100 97 98 100 100 96 96 94 97 98 96 96 76 56 43 35 27 23 21 20 21 23 24 25 26 26 25
Wind_Speed
20 18 17 17 16 15 16 16 15 14 14 14 15 15 16 16 16 17 17 17 18 18 19 20 20 21 21
21 22 21 19 19 18 18 18 17 16 16 16 17 17 17 18 17 18 18 18 18 18 19 19 20 20 21
22 23 23 23 22 21 21 21 19 18 18 19 19 18 18 19 19 18 18 18 18 18 18 18 19 20 21
22 23 24 24 25 25 24 22 21 19 20 20 20 19 19 18 19 19 18 18 17 18 18 18 18 19 20
24 24 25 26 27 27 25 23 21 22 22 21 21 19 18 18 17 17 17 17 17 17 17 17 17 17 19
24 26 26 26 25 25 24 23 24 23 23 23 23 21 19 18 17 17 17 16 15 16 16 16 16 16 18
27 27 27 24 23 23 22 23 25 24 23 23 22 21 19 17 16 17 16 15 14 14 15 14 15 14 15
28 26 25 23 23 23 23 21 25 27 27 25 22 20 19 17 17 18 15 14 13 12 12 12 12 12 13
27 27 27 26 26 27 28 30 32 32 26 24 22 18 17 18 18 18 15 12 11 10 9 8 8 10 11
27 29 29 29 31 31 32 32 28 24 25 22 19 19 17 19 18 17 14 10 8 6 3 4 7 10 13
25 26 29 29 31 32 28 25 23 27 19 17 19 21 21 15 14 15 12 9 6 3 2 5 8 11 14
28 28 27 27 28 28 26 26 28 29 21 18 21 20 18 19 16 15 13 11 8 5 2 4 6 9 12
32 31 26 24 25 26 26 23 21 20 21 23 21 19 18 18 18 17 16 14 10 7 4 2 3 5 9
32 32 27 27 27 26 27 28 25 26 25 22 22 20 20 19 18 18 17 12 12 8 5 2 2 5 8
31 33 33 29 29 27 30 30 29 29 26 24 22 21 20 19 19 19 18 16 13 9 7 4 1 3 5
31 33 35 34 33 32 30 31 32 31 27 25 24 23 22 22 21 19 18 16 14 11 8 5 2 2 4
35 34 34 36 36 38 33 32 34 32 30 25 25 25 25 25 20 20 19 17 14 11 8 5 3 3 3
Wind_Direction
277 278 276 274 274 274 270 269 272 275 280 285 290 294 298 303 307 309 314 317 320 323 326 329 333 336 339
274 277 278 276 272 272 270 267 268 272 280 285 286 289 293 296 302 304 311 314 318 321 325 326 329 331 334
272 272 273 273 271 271 268 264 265 269 277 280 282 286 288 291 298 303 306 311 316 320 323 324 326 329 332
270 270 271 271 271 269 266 263 262 267 273 274 276 279 282 286 292 298 303 309 314 317 321 325 328 330 334
272 270 270 270 272 274 270 264 265 268 271 272 274 274 275 281 287 293 300 306 311 316 321 325 327 333 336
274 274 274 273 273 271 266 264 269 275 273 272 271 269 271 276 284 292 299 304 312 318 322 326 330 337 340
270 270 273 273 272 265 260 273 275 271 273 274 265 264 267 273 280 287 295 299 311 316 320 326 332 337 341
271 272 269 266 257 255 263 266 262 264 267 263 262 263 267 269 275 282 287 294 305 312 319 326 334 342 348
273 269 266 259 253 255 262 266 262 263 258 254 257 261 261 266 267 271 275 288 299 304 316 330 346 0 8
266 266 266 260 260 263 270 265 259 256 251 245 256 260 258 258 257 258 266 276 280 294 322 13 32 39 38
263 260 263 265 267 270 263 254 248 249 242 244 252 249 245 254 253 249 254 254 243 230 112 54 44 45 42
274 267 262 264 264 262 254 250 239 245 255 248 248 254 250 246 249 246 236 219 210 198 166 61 44 36 31
266 269 268 270 266 254 252 248 244 238 236 242 250 249 249 248 247 241 222 206 206 205 194 134 68 50 36
265 269 269 267 261 253 241 243 237 234 243 240 244 244 244 240 237 228 219 208 208 202 202 204 8 16 13
260 263 264 263 257 251 239 238 237 243 241 237 239 241 237 234 229 223 218 213 209 201 198 213 260 333 351
264 260 262 262 253 246 240 239 239 238 235 236 238 234 233 231 226 221 217 212 205 201 194 195 242 306 332
262 263 262 259 254 246 238 238 235 235 236 235 232 233 232 230 225 220 215 214 212 213 212 213 224 266 283